Regional Weather Roundup
Issued by NWS Charleston, SC

Home | Current Version | Previous Version | Text Only | Print | Product List | Glossary On
Versions: 1 2 3 4 5 6 7 8 9 10 11 12 13 14 15 16 17 18 19 20 21 22 23 24 25 26 27 28 29 30 31 32 33 34 35 36 37 38 39 40 41 42 43 44 45 46 47 48 49 50
000
ASUS42 KCHS 291527
RWRCHS

REGIONAL WEATHER ROUNDUP
NATIONAL WEATHER SERVICE CHARLESTON SC
1100 AM EDT WED MAR 29 2017

NOTE: "FAIR" INDICATES FEW OR NO CLOUDS BELOW 12,000 FEET WITH NO
SIGNIFICANT WEATHER AND/OR OBSTRUCTIONS TO VISIBILITY.

NOT ALL STATIONS ARE QUALITY CONTROLLED. USE DATA WITH CAUTION...
ESPECIALLY DEWPOINT OBSERVATIONS.

SCZ027-030-031-034>040-042>050-291600-
...SOUTHEAST SOUTH CAROLINA...

CITY           SKY/WX    TMP DP  RH WIND       PRES   REMARKS
N CHARLESTON   MOSUNNY   76  54  46 E6        30.03R
WATERFRONT PRK   N/A     70  58  66 N6        30.02R
JOHNS ISLAND   FAIR      75  59  57 VRB3      30.04R
PINOPOLIS        N/A     66  59  77 CALM      29.96R
MONCKS CORNER  FAIR      73  52  46 NW3       30.05R
SUMMERVILLE    FAIR      73  54  49 CALM      30.05S
BEAUFORT MCAS  SUNNY     74  58  57 VRB5      30.04R
BEAUFORT ARPT  FAIR      72  57  60 N6        30.05R
HILTON HEAD IS SUNNY     73  57  56 NE7       30.05R
WALTERBORO     SUNNY     73  54  49 NE6       30.06R
ALLENDALE      FAIR      73  52  46 VRB3      30.05R

...SOUTHERN MIDLANDS AND PEE DEE...

CITY           SKY/WX    TMP DP  RH WIND       PRES   REMARKS
GEORGETOWN     FAIR      73  54  49 NE6       30.05R
KINGSTREE      FAIR      73  50  43 NE3       30.05R
ORANGEBURG     SUNNY     73  53  49 VRB3      30.06R
BARNWELL       FAIR      75  54  46 NE6       30.06S
AIKEN          FAIR      72  52  49 E6        30.10S
MANNING        FAIR      72  52  49 SE3       30.05R
COLUMBIA       MOSUNNY   73  51  46 NE8       30.06R
SUMTER         SUNNY     72  53  51 CALM      30.04R
FLORENCE       SUNNY     71  56  58 NE6       30.05R
MYRTLE BEACH   SUNNY     73  55  53 N9        30.03R
N MYRTLE BEACH SUNNY     74  55  51 NE7       30.03R

$$

GAZ063-065-086>088-099>101-113>116-118-119-134>141-150-291600-
...SOUTHEAST GEORGIA...

CITY           SKY/WX    TMP DP  RH WIND       PRES   REMARKS
SAVANNAH ARPT  PTSUNNY   77  56  48 E7        30.04R
HUNTER AAF     SUNNY     77  62  58 E7        30.02R
FORT STEWART   MOSUNNY   77  60  56 NE3       30.02R
STATESBORO     SUNNY     77  57  50 E6        30.05S
SYLVANIA       SUNNY    N/A N/A N/A SE5       30.06S
CLAXTON        FAIR      76  60  55 NE3       30.05S

...CSRA...CENTRAL AND FAR SOUTHEAST GEORGIA...

CITY           SKY/WX    TMP DP  RH WIND       PRES   REMARKS
THOMSON        SUNNY     73  51  46 SE7       30.12S
AUGUSTA-BUSH   SUNNY     75  52  44 E6        30.05S
AUGUSTA-DANIEL SUNNY     73  49  42 NE8       30.07S
SWAINSBORO     FAIR      75  52  43 SE7       30.07S
VIDALIA        SUNNY     75  59  57 E5        30.05S
EASTMAN        FAIR      79  46  31 E3        30.07S
HAZLEHURST     FAIR      77  66  68 CALM      30.05R
ALMA           SUNNY     78  65  63 NW5       30.04R
WAYCROSS       SUNNY     81  69  67 NE3       30.04S
JESUP          FAIR      79  61  53 CALM      30.04S
BAXLEY         FAIR      77  68  73 NE6       30.04S
BRUNSWICK      SUNNY     81  66  61 NW7       30.04S
SAINT SIMONS   SUNNY     79  62  56 NW6       30.03R

$$

SCZ027-028-034-036>038-045-046-048>050-GAZ119-141-291600-
...LAKE AND SUPPLEMENTAL COASTAL OBSERVATIONS...

STATION/POSITION TIME  TEMP    WIND        PRES    WAVE   SWELL
                       AIR SEA DIR/SP/G            HT/PER HT/PER/DIR
                 (UTC) (F)     (DEG/KT/KT) (MB)    (FT/S) (FT/S/D)
WINYAH BAY       1345   69      50/ 11     1016.0
LAKE MURRAY      1420   68      40/  1/  6 1017.6R
ACE BASIN NERRS  NOT AVBL
FORT PULASKI     1500   70 66   70/ 11/ 14 1017.5
SAPELO ISLAND    1400   74     350/  6     1017.0

$$

ANZ835-935-AMZ111-154-330-350-352-354-370-450-454-472-291600-
...C-MAN AND BUOY OBSERVATIONS...

STATION/POSITION TIME  TEMP    WIND        PRES    WAVE   SWELL
                       AIR SEA DIR/SP/G            HT/PER HT/PER/DIR
                 (UTC) (F)     (DEG/KT/KT) (MB)    (FT/S) (FT/S/D)
BUOY 41004       1450   70 70   40/  8/ 10 1016.1R   5/10   5/110/10
BUOY 41008       1450   67 65  320/  6/  8 1016.7R   3/10   3/ 90/10
FOLLY BEACH CMAN 1500   68      60/  4/  5 1017.8R
CAPERS NEARSHORE NOT AVBL
FRIPP NEARSHORE  1508   66 63   50/  4/  6 1017.0R


STATION/POSITION TIME  TEMP    WIND        PRES    WAVE   SWELL
                       AIR SEA DIR/SP/G            HT/PER HT/PER/DIR
                 (UTC) (F)     (DEG/KT/KT) (MB)    (FT/S) (FT/S/D)
5E ST. MARYS GA  1500      68                N/A     3/11   2/120/11
FRYING PAN BUOY  1510   69 74   10/ 12/ 14 1016.4
BUOY 41025       1450   55 73   20/ 21/ 25 1016.9R   6/10   3/150/10
CAPE LOOKOUT NC  1500   59      30/ 19/ 21 1017.6R
BUOY 41002       1450   71 72  260/ 10/ 12 1014.9R   7/11   7/100/11
BUOY 41010       NOT AVBL
ST AUGUSTINE FL  1500   71 67  100/  4/  4 1018.8R


$$



USA.gov is the U.S. government's official web portal to all federal, state and local government web resources and services.